Location: Ermatingen
(47.6706°N, 9.0857°E)
Time: 01:22:39
(UTC+00:00)

Cosmos 1428 Rocket - Pass Details

Date: 03 December 2021
Orbit: 949 x 987 km, 82.9° (Epoch: 17 January)

Event Time Altitude Azimuth Distance (km) Brightness Sun altitude
Rises 18:14:21 0° 342° (NNW) 3,634 7.7 -26.3°
Reaches altitude 10° 18:17:11 10° 331° (NNW) 2,686 7.1 -26.7°
Maximum altitude 18:22:12 27° 276° (W) 1,738 6.4 -27.6°
Drops below altitude 10° 18:27:13 10° 220° (SW) 2,686 7.3 -28.4°
Sets 18:30:04 0° 209° (SSW) 3,634 7.9 -28.9°
